EDT,Max TemperatureF,Mean TemperatureF,Min TemperatureF,Max Dew PointF,MeanDew PointF,Min DewpointF,Max Humidity, Mean Humidity, Min Humidity, Max Sea Level PressureIn, Mean Sea Level PressureIn, Min Sea Level PressureIn, Max VisibilityMiles, Mean VisibilityMiles, Min VisibilityMiles, Max Wind SpeedMPH, Mean Wind SpeedMPH, Max Gust SpeedMPH,PrecipitationIn, CloudCover, Events, WindDirDegrees
2011-10-1,57,52,47,44,38,34,71,59,47,30.16,30.07,29.96,10,10,10,16,6,21,T,5,,1
2011-10-2,62,53,44,41,37,31,83,59,34,30.18,30.13,30.09,10,10,10,16,4,20,0.00,1,,335
2011-10-3,70,54,38,43,38,33,86,57,28,30.22,30.17,30.13,10,10,10,10,3,15,0.00,0,,218
2011-10-4,76,60,43,51,45,41,92,63,33,30.31,30.24,30.20,10,10,10,12,2,16,0.00,0,,62
2011-10-5,80,65,49,53,50,46,93,63,32,30.30,30.23,30.17,10,10,10,8,2,10,0.00,0,,43
2011-10-6,83,67,50,58,52,48,96,66,36,30.30,30.25,30.21,10,10,10,7,1,8,0.00,0,,54
2011-10-7,80,66,52,57,55,52,100,70,39,30.38,30.31,30.27,10,9,3,8,2,12,0.00,0,,39
2011-10-8,77,63,49,56,49,43,96,64,31,30.44,30.36,30.30,10,9,1,9,2,12,0.00,0,,36
2011-10-9,70,61,51,57,52,48,90,71,52,30.35,30.28,30.21,10,10,10,7,2,9,0.00,1,,10
2011-10-10,79,69,59,59,54,47,90,64,38,30.20,30.11,30.03,10,10,4,14,7,20,0.13,4,Rain,46
2011-10-11,66,63,59,62,59,57,100,94,87,30.03,29.98,29.91,10,8,2,13,5,15,0.45,8,Rain,33
2011-10-12,68,63,58,59,57,55,100,84,68,29.92,29.85,29.76,10,9,2,8,3,10,T,8,Rain,44
2011-10-13,70,65,59,62,59,57,100,87,73,29.76,29.65,29.56,10,7,1,25,8,31,0.42,8,Rain-Thunderstorm,217
2011-10-14,73,63,53,57,49,37,100,65,29,29.88,29.78,29.68,10,10,6,26,11,38,T,2,Rain,230
2011-10-15,70,60,50,46,40,33,72,50,27,30.11,30.02,29.88,10,10,10,18,8,22,0.00,1,,243
2011-10-16,78,61,44,46,42,38,83,56,28,30.17,30.06,29.96,10,10,10,21,7,25,0.00,0,,214
2011-10-17,81,70,58,56,52,46,68,54,39,29.96,29.90,29.82,10,10,10,18,9,23,0.00,0,,227
2011-10-18,82,68,54,60,55,52,93,66,39,29.81,29.68,29.51,10,10,7,21,4,26,0.06,2,Rain,232
2011-10-19,62,54,45,61,50,42,100,93,86,29.63,29.51,29.42,10,4,1,21,12,26,1.96,8,Rain-Thunderstorm,244
2011-10-20,52,48,43,43,40,38,92,77,61,30.04,29.80,29.64,10,10,8,26,16,32,0.06,8,Rain,224
2011-10-21,60,52,43,42,38,34,86,63,40,30.15,30.10,30.04,10,10,10,13,3,16,0.00,4,,230
2011-10-22,64,50,36,42,37,32,92,63,34,30.21,30.15,30.10,10,8,1,8,1,10,0.00,1,,265
2011-10-23,67,52,37,46,40,34,100,65,29,30.17,30.12,30.05,10,7,0,13,1,15,0.00,2,Fog,51
2011-10-24,71,59,47,47,45,42,86,62,37,30.18,30.13,30.08,10,10,10,14,4,17,0.00,2,,212
2011-10-25,75,60,44,49,45,42,93,63,33,30.26,30.17,30.09,10,10,4,10,2,12,0.00,0,,239
2011-10-26,75,61,47,51,47,45,86,62,38,30.08,30.01,29.91,10,10,10,23,9,28,0.00,0,,232
2011-10-27,64,57,50,54,50,44,96,76,56,30.03,29.91,29.84,10,9,4,18,9,23,0.08,6,Rain,280
2011-10-28,50,46,41,48,44,39,100,93,86,30.05,29.99,29.94,10,4,2,16,9,20,1.48,8,Rain,9
2011-10-29,56,47,38,40,36,31,100,71,41,30.19,30.11,30.03,10,8,2,13,4,18,0.08,5,Rain,7
2011-10-30,60,47,33,39,34,28,100,66,31,30.33,30.25,30.18,10,6,0,8,1,8,0.00,1,Fog,205
2011-10-31,59,47,35,40,36,33,92,68,43,30.25,30.21,30.15,10,10,9,15,2,17,0.00,2,,231